IR4UCA Weather Reports


Display with metric or nautical units.
time (UTC)temp
F
wind
direction
speed
MPH
gust
MPH
rain 1hr
in
rain 24hr
in
rain mn
in
humidity
%
barometer
mb
20260507151943 73 111 1.0 5.0 0.00 0.00 0.00 50 1011.9
20260507150944 73 109 2.0 3.0 0.00 0.00 0.00 49 1011.8
20260507144943 73 85 2.0 6.0 0.00 0.00 0.00 46 1011.9
20260507143943 74 121 2.0 15.0 0.00 0.00 0.00 46 1011.8
20260507142944 75 44 5.0 9.0 0.00 0.00 0.00 43 1011.7
20260507141944 76 354 3.0 5.0 0.00 0.00 0.00 42 1011.7
20260507140946 76 248 3.0 5.0 0.00 0.00 0.00 42 1011.9
20260507135944 75 197 2.0 5.0 0.00 0.00 0.00 42 1011.9
20260507134943 75 157 1.0 7.0 0.00 0.00 0.00 43 1011.9
20260507133943 74 255 2.0 5.0 0.00 0.00 0.00 42 1011.9
20260507132944 73 73 1.0 5.0 0.00 0.00 0.00 43 1012.0
20260507131943 73 17 4.0 9.0 0.00 0.00 0.00 44 1012.0
20260507130944 73 30 1.0 7.0 0.00 0.00 0.00 44 1012.1
20260507125944 74 37 5.0 9.0 0.00 0.00 0.00 42 1012.1
20260507124943 73 288 1.0 9.0 0.00 0.00 0.00 44 1012.2
20260507123944 73 123 2.0 7.0 0.00 0.00 0.00 43 1012.3
20260507121943 72 313 1.0 5.0 0.00 0.00 0.00 46 1012.4
20260507115943 71 292 4.0 7.0 0.00 0.01 0.00 47 1012.7
20260507114943 70 18 2.0 9.0 0.00 0.02 0.00 47 1012.8
20260507113944 70 0 5.0 12.0 0.00 0.02 0.00 48 1012.8
20260507111943 71 11 1.0 6.0 0.00 0.02 0.00 46 1013.0
20260507110944 71 0 5.0 9.0 0.00 0.02 0.00 47 1013.0
20260507104943 70 61 5.0 9.0 0.00 0.02 0.00 49 1013.2
20260507103944 69 18 2.0 7.0 0.00 0.02 0.00 51 1013.3
20260507101943 70 0 2.0 6.0 0.00 0.02 0.00 47 1013.3
20260507100943 69 120 2.0 6.0 0.00 0.02 0.00 49 1013.5
20260507095943 69 45 2.0 4.0 0.00 0.02 0.00 52 1013.5
20260507094945 69 63 2.0 6.0 0.00 0.02 0.00 52 1013.5
20260507093943 68 79 3.0 7.0 0.00 0.02 0.00 52 1013.5
20260507092945 68 117 2.0 9.0 0.00 0.02 0.00 52 1013.5
20260507091943 67 106 2.0 6.0 0.00 0.02 0.00 51 1013.6
20260507090943 67 65 5.0 7.0 0.00 0.02 0.00 53 1013.6
20260507084943 67 75 3.0 5.0 0.00 0.02 0.00 52 1013.4
20260507083945 66 125 2.0 6.0 0.00 0.03 0.00 56 1013.4
20260507082945 65 214 0.0 5.0 0.00 0.04 0.00 56 1013.4
20260507081943 64 219 2.0 6.0 0.00 0.05 0.00 60 1013.3
20260507080943 64 219 3.0 7.0 0.00 0.05 0.00 60 1013.4
20260507073943 62 180 3.0 9.0 0.00 0.07 0.00 64 1013.1
20260507072943 62 206 3.0 9.0 0.00 0.08 0.00 64 1013.1
20260507071943 62 192 4.0 10.0 0.00 0.10 0.00 65 1013.0
20260507070943 61 224 4.0 6.0 0.00 0.11 0.00 65 1013.0
20260507064943 60 210 4.0 10.0 0.00 0.11 0.00 66 1012.9
20260507063944 60 209 5.0 11.0 0.00 0.12 0.00 67 1012.8
20260507062946 59 190 4.0 10.0 0.00 0.15 0.00 67 1012.8
20260507060943 59 209 2.0 5.0 0.00 0.18 0.00 69 1012.6
20260507054943 58 217 2.0 6.0 0.00 0.24 0.00 71 1012.4
20260507053943 57 189 1.0 3.0 0.00 0.25 0.00 74 1012.3
20260507052947 56 189 1.0 5.0 0.00 0.26 0.00 76 1012.1
20260507051944 55 197 3.0 5.0 0.00 0.27 0.00 78 1012.1
20260507044944 53 203 1.0 2.0 0.00 0.30 0.00 86 1011.9
20260507043944 53 203 0.0 4.0 0.00 0.31 0.00 85 1011.7
20260506203944 62 186 2.0 5.0 0.00 0.90 0.90 61 1010.3
20260506202943 62 195 1.0 5.0 0.00 0.90 0.90 61 1010.2
20260506201943 63 219 4.0 6.0 0.00 0.90 0.90 59 1010.0
20260506200943 64 237 3.0 6.0 0.00 0.90 0.90 58 1009.9
20260506195943 64 230 4.0 10.0 0.00 0.90 0.90 57 1009.8
20260506194944 64 231 4.0 10.0 0.00 0.90 0.90 56 1009.6
20260506193944 65 234 3.0 11.0 0.00 0.90 0.90 55 1009.4
20260506192948 65 182 3.0 10.0 0.00 0.90 0.90 54 1009.3
20260506191944 65 161 4.0 14.0 0.00 0.90 0.90 54 1009.0
20260506190943 65 110 5.0 12.0 0.00 0.90 0.90 54 1009.1
20260506185943 65 228 6.0 12.0 0.00 0.90 0.90 56 1009.1
20260506184943 66 227 6.0 12.0 0.00 0.90 0.90 57 1008.9
20260506183943 66 158 4.0 9.0 0.00 0.90 0.90 57 1008.8
20260506182943 66 176 4.0 12.0 0.00 0.90 0.90 57 1008.8
20260506181943 67 213 3.0 6.0 0.00 0.90 0.90 59 1008.6
20260506180943 67 155 2.0 9.0 0.00 0.90 0.90 59 1008.6
20260506174943 67 195 2.0 10.0 0.00 0.90 0.90 60 1008.4
20260506164943 68 226 3.0 11.0 0.00 0.90 0.90 68 1008.0
20260506163943 68 197 5.0 10.0 0.00 0.90 0.90 66 1008.0
20260506162943 68 196 4.0 7.0 0.00 0.90 0.90 67 1008.1
20260506160943 68 196 3.0 11.0 0.00 0.90 0.90 68 1008.0
20260506155944 68 178 5.0 11.0 0.00 0.90 0.90 69 1007.9
20260506154943 67 176 4.0 10.0 0.00 0.90 0.90 70 1007.8
20260506152943 67 175 4.0 6.0 0.00 0.90 0.90 72 1008.1